Location: Newark
(40.9833°N, 0.0333°W)
Time: 02:02:41
(UTC+00:00)

Altair - Pass Details

Date: 01 November 2020
Orbit: 1502 x 1682 km, 47.2° (Epoch: 02 December)

Event Time Altitude Azimuth Distance (km) Brightness Sun altitude
Rises 08:20:52 0° 291° (WNW) 4,701 9.5 17.3°
Reaches altitude 10° 08:23:54 10° 293° (WNW) 3,739 9.0 17.7°
Maximum altitude 08:33:25 71° 18° (NNE) 1,671 8.0 19.1°
Drops below altitude 10° 08:43:18 10° 102° (ESE) 3,876 10.8 20.5°
Sets 08:46:30 0° 105° (ESE) 4,882 11.2 20.9°
